Location: Boissi�res
(45.2500°N, 2.3667°E)
Time: 15:49:06
(UTC+00:00)

SeaSat 1 - Pass Details

Date: 03 March 2021
Orbit: 744 x 747 km, 108.0° (Epoch: 19 April)

Event Time Altitude Azimuth Distance (km) Brightness Sun altitude
Rises 19:34:12 0° 23° (NNE) 3,200 5.6 -20.7°
Reaches altitude 10° 19:36:31 10° 19° (NNE) 2,273 4.9 -21.1°
Maximum altitude 19:41:18 52° 304° (WNW) 930 3.2 -21.9°
Drops below altitude 10° 19:46:04 10° 229° (SW) 2,261 5.3 -22.7°
Sets 19:48:21 0° 224° (SW) 3,181 6.1 -23.1°
